Location: Fenile
(46.0500°N, 9.5500°E)
Time: 07:12:57
(UTC+00:00)

CZ-4B R/B - Pass Details

Date: 03 March 2021
Orbit: 388 x 455 km, 97.6° (Epoch: 11 April)

Event Time Altitude Azimuth Distance (km) Brightness Sun altitude
Rises 18:40:15 0° 354° (N) 2,293 5.2 -16.2°
Reaches altitude 10° 18:42:55 10° 327° (NNW) 1,435 4.5 -16.7°
Maximum altitude 18:44:32 14° 295° (WNW) 1,236 4.7 -17.0°
Drops below altitude 10° 18:46:09 10° 263° (W) 1,437 5.1 -17.2°
Sets 18:48:50 0° 235° (SW) 2,299 5.7 -17.7°
